Orbital Elements at Epoch 2459200.5 (2020-Dec-17.0) TDB
Reference: JPL 21 (heliocentric ecliptic J2000)
Element | Value | Uncertainty (1-sigma) | Units |
e | .2282798462762861 | 3.4434e-08 | |
a | 2.907937499094654 | 1.8578e-08 | au |
q | 2.244113973820279 | 1.0419e-07 | au |
i | 6.669556253332192 | 7.3724e-06 | deg |
node | 175.40735648916 | 3.5432e-05 | deg |
peri | 78.14813072112958 | 3.9693e-05 | deg |
M | 358.2267849574893 | 1.7288e-05 | deg |
tp | 2459209.421439502194 (2020-Dec-25.92143950) | 8.7005e-05 | TDB |
period | 1811.2401168457 4.96 | 1.7357e-05 4.752e-08 | d yr |
n | .1987588485103483 | 1.9047e-09 | deg/d |
Q | 3.571761024369029 | 2.2818e-08 | au |
|
| | Orbit Determination Parameters
Additional Information
|